Weather History for Marshfield, WI

Change the Weather History Date:

Monday, October 7, 2013

  Actual Average Record
Temperature  
Mean Temperature 52 °F -  
Max Temperature 63 °F 61 °F 84 °F (2007)
Min Temperature 42 °F 37 °F 19 °F (2001)
Degree Days  
Heating Degree Days 12    
Growing Degree Days 2 (Base 50)    
Moisture  
Dew Point 43 °F    
Average Humidity 80    
Maximum Humidity 96    
Minimum Humidity 43    
Precipitation  
Precipitation 0.04 in - - ()
Sea Level Pressure  
Sea Level Pressure 29.86 in    
Wind  
Wind Speed 10 mph (WNW)    
Max Wind Speed 15 mph    
Max Gust Speed 24 mph    
Visibility 9 miles    
Events Rain    
Averages and records for this station are not official NWS values.
T = Trace of Precipitation, MM = Missing Value Source: NWS Daily Summary

Daily Weather History Graph

Daily Weather History Graph

Search for Another Location

Airport:

Trip Planner

Search our weather history database for the weather conditions in past years. The results will help you decide how hot, cold, wet, or windy it might be!

Date:

Astronomy

Oct. 07, 2013 Rise Set
Actual Time 7:06 AM CDT 6:29 PM CDT
Civil Twilight 6:37 AM CDT 6:59 PM CDT
Nautical Twilight 6:03 AM CDT 7:32 PM CDT
Astronomical Twilight 5:29 AM CDT 8:06 PM CDT
Moon 10:04 AM CDT (10/7) 8:06 PM CDT (10/7)
Length of Visible Light 12h 21m
Length of Day
11h 23m
Waxing Crescent, 9% of the Moon is Illuminated
Oct 7
Waxing Crescent
Oct 11
First Quarter
Oct 18
Full
Oct 26
Last Quarter
Nov 3
New

Hourly Weather History & Observations

Time (CDT) Temp. Windchill Dew Point Humidity Pressure Visibility Wind Dir Wind Speed Gust Speed Precip Events Conditions
12:14 AM 48.2 °F - 46.4 °F 93% 29.71 in 9.0 mi WNW 11.5 mph - 0.00 in Rain Light Rain
12:47 AM 48.2 °F - 46.4 °F 93% 29.71 in 6.0 mi WNW 11.5 mph - 0.03 in Rain Light Rain
12:54 AM 48.9 °F - 46.9 °F 93% 29.72 in 3.0 mi WNW 10.4 mph - 0.04 in Rain Light Rain
1:22 AM 48.2 °F - 46.4 °F 93% 29.72 in 5.0 mi NNW 13.8 mph 19.6 mph 0.00 in   Overcast
1:29 AM 48.2 °F - 46.4 °F 93% 29.73 in 4.0 mi NW 12.7 mph - 0.00 in Rain Light Rain
1:54 AM 48.0 °F - 46.0 °F 93% 29.75 in 10.0 mi NNW 15.0 mph 24.2 mph 0.00 in   Overcast
2:06 AM 48.2 °F - 44.6 °F 87% 29.73 in 10.0 mi NNW 10.4 mph - N/A   Overcast
2:45 AM 46.4 °F 41.1 °F 42.8 °F 87% 29.75 in 10.0 mi NNW 11.5 mph - N/A   Scattered Clouds
2:54 AM 46.0 °F 40.6 °F 42.1 °F 86% 29.76 in 10.0 mi NNW 11.5 mph - N/A   Partly Cloudy
3:54 AM 44.1 °F 39.5 °F 41.0 °F 89% 29.78 in 10.0 mi WNW 8.1 mph - N/A   Partly Cloudy
4:19 AM 42.8 °F 38.6 °F 41.0 °F 93% 29.77 in 10.0 mi WNW 6.9 mph - N/A   Scattered Clouds
4:52 AM 44.6 °F 41.4 °F 42.8 °F 93% 29.78 in 10.0 mi WNW 5.8 mph - N/A   Mostly Cloudy
4:54 AM 45.0 °F 41.8 °F 43.0 °F 93% 29.80 in 10.0 mi WNW 5.8 mph - N/A   Mostly Cloudy
5:01 AM 44.6 °F 39.2 °F 42.8 °F 93% 29.78 in 10.0 mi WNW 10.4 mph - N/A   Mostly Cloudy
5:54 AM 45.0 °F 40.6 °F 43.0 °F 93% 29.81 in 10.0 mi NW 8.1 mph - N/A   Overcast
6:54 AM 44.1 °F 40.8 °F 42.1 °F 93% 29.83 in 10.0 mi WNW 5.8 mph - N/A   Overcast
7:26 AM 44.6 °F 40.2 °F 42.8 °F 93% 29.82 in 10.0 mi WNW 8.1 mph - N/A   Mostly Cloudy
7:54 AM 44.1 °F 40.1 °F 43.0 °F 96% 29.85 in 10.0 mi West 6.9 mph - N/A   Overcast
8:54 AM 45.0 °F 39.7 °F 43.0 °F 93% 29.88 in 9.0 mi WNW 10.4 mph - N/A   Overcast
9:54 AM 48.9 °F - 45.0 °F 86% 29.90 in 10.0 mi WNW 9.2 mph - N/A   Scattered Clouds
10:54 AM 54.0 °F - 45.0 °F 72% 29.91 in 10.0 mi West 9.2 mph - N/A   Clear
11:54 AM 59.0 °F - 46.0 °F 62% 29.92 in 10.0 mi West 9.2 mph - N/A   Clear
12:54 PM 61.0 °F - 43.0 °F 52% 29.92 in 10.0 mi WNW 10.4 mph - N/A   Partly Cloudy
1:54 PM 63.0 °F - 43.0 °F 48% 29.92 in 10.0 mi NW 13.8 mph 18.4 mph N/A   Scattered Clouds
2:54 PM 63.0 °F - 39.9 °F 43% 29.94 in 10.0 mi WNW 10.4 mph 20.7 mph N/A   Clear
3:54 PM 63.0 °F - 39.9 °F 43% 29.95 in 10.0 mi West 11.5 mph 18.4 mph N/A   Clear
4:54 PM 62.1 °F - 39.0 °F 43% 29.96 in 10.0 mi WNW 11.5 mph - N/A   Clear
5:54 PM 59.0 °F - 39.9 °F 49% 29.97 in 10.0 mi WNW 4.6 mph - N/A   Clear
6:54 PM 52.0 °F - 42.1 °F 69% 29.99 in 10.0 mi West 3.5 mph - N/A   Clear
7:54 PM 48.9 °F - 42.1 °F 77% 30.02 in 10.0 mi Calm Calm - N/A   Clear
8:54 PM 48.0 °F - 42.1 °F 80% 30.04 in 10.0 mi Calm Calm - N/A   Clear
9:54 PM 46.0 °F - 41.0 °F 83% 30.06 in 10.0 mi Calm Calm - N/A   Clear
10:54 PM 45.0 °F - 41.0 °F 86% 30.06 in 10.0 mi Calm Calm - N/A   Clear
11:54 PM 44.1 °F - 41.0 °F 89% 30.06 in 10.0 mi Calm Calm - N/A   Clear